Regional Weather Roundup
Issued by NWS Spokane, WA

Home | Current Version | Previous Version | Text Only | Print | Product List | Glossary On
Versions: 1 2 3 4 5 6 7 8 9 10 11 12 13 14 15 16 17 18 19 20 21 22 23 24 25 26 27 28 29 30 31 32 33 34 35 36 37 38 39 40 41 42 43 44 45 46 47 48 49 50
000
NZUS01 KOTX 220505
RWROTX

Eastern Washington/Northern Idaho Roundup
National Weather Service, Spokane WA
900 PM PST SUN JAN 21 2018

Note: "fair" indicated few or no clouds below 12,000 feet with no
significant weather and/or obstructions to visibility.

...Northeast Washington and Northern Idaho Panhandle...

CITY           SKY/WX    TMP DP  RH WIND       PRES   REMARKS
Spokane Intl   CLOUDY    36  34  92 S10       29.96R
Spokane Downto CLOUDY    41  33  73 SW12      29.98R
Coeur d Alene  MIX PCPN  34  33  96 S10       29.98R WCI  26
Deer Park      LGT RAIN  35  33  92 S6        29.97R
Sandpoint      LGT RAIN  34  32  93 CALM      29.97S
Bonners Ferry  FLURRIES  32  32 100 CALM      29.94F

...Southeast Washington and southern Idaho Panhandle...

CITY           SKY/WX    TMP DP  RH WIND       PRES   REMARKS
Walla Walla    MOCLDY    45  34  65 S15       30.04R
Pullman/Moscow CLOUDY    37  32  82 S16       30.03R
Lewiston       CLOUDY    43  33  68 SE9       30.06S
Lowell           N/A     36  35  96 CALM      30.14S
Grangeville    MOCLDY    34  30  86 SE5       30.02R WCI  30

...Columbia Basin...

CITY           SKY/WX    TMP DP  RH WIND       PRES   REMARKS
Ephrata        PTCLDY    32  28  85 CALM      29.96S
Moses Lake     PTCLDY    36  35  96 SW5       29.98R
Pasco          CLOUDY    45  37  73 SW7       30.05R
Richland       CLOUDY    46  38  74 SW6       30.04R
Hermiston      MOCLDY    39  36  89 CALM      30.05R
Pendleton      MOCLDY    42  34  73 SW8       30.03R

...East Slopes Cascades...

CITY           SKY/WX    TMP DP  RH WIND       PRES   REMARKS
The Dalles     MOCLDY    38  35  89 E6        30.07R
Yakima         PTCLDY    34  30  85 CALM      29.99R
Stampede Pass  CLOUDY    30  28  92 VRB6      29.90R WCI  24
Wenatchee      CLEAR     35  33  92 E3        29.96R
Omak           CLOUDY    37  36  96 SW7       29.94R
Sunnyside      CLOUDY    33  31  91 NE3       30.02R

...Southern British Columbia...

CITY           SKY/WX    TMP DP  RH WIND       PRES   REMARKS

...Western Montana...

CITY           SKY/WX    TMP DP  RH WIND       PRES   REMARKS
Kalispell      CLOUDY    30  24  78 SW5       29.96S WCI  25
Missoula       CLOUDY    32  22  66 SE9       30.02S WCI  24

...Neighboring Cities...

CITY           SKY/WX    TMP DP  RH WIND       PRES   REMARKS
Seattle        MOCLDY    42  38  85 S13       29.99S
Portland       MOCLDY    44  40  85 SE7       30.09R
Boise          CLOUDY    39  24  55 S5        30.18S
Great Falls    MOCLDY    30  13  49 S18G28    29.91S WCI  18



USA.gov is the U.S. government's official web portal to all federal, state and local government web resources and services.